• In United Kingdom
  • List of Countries
  • For 7 days
  • Water Temperature
  • Satellite Maps
  • Weather Map
  • Weather Widgets
  • user-avatar
    Login

    Hourly Weather Sidi Bu-l-Abbas

    Today, 19 September, Tuesday

    Time Temperature Precipitation Wind Pressure Humidity
    00:00 +22°C° 0 mm 3 mps 723 mmHg 38%
    01:00 +21°C° 0 mm 3 mps 723 mmHg 40%
    02:00 +21°C° 0 mm 3 mps 723 mmHg 42%
    03:00 +20°C° 0 mm 3 mps 723 mmHg 44%
    04:00 +20°C° 0 mm 3 mps 723 mmHg 46%
    05:00 +20°C° 0 mm 3 mps 723 mmHg 48%
    06:00 +20°C° 0 mm 2 mps 723 mmHg 53%
    07:00 +21°C° 0 mm 3 mps 723 mmHg 52%
    08:00 +22°C° 0 mm 3 mps 724 mmHg 50%
    09:00 +23°C° 0 mm 4 mps 724 mmHg 48%
    10:00 +25°C° 0 mm 4 mps 724 mmHg 45%
    11:00 +27°C° 0 mm 4 mps 724 mmHg 42%
    12:00 +28°C° 0 mm 4 mps 724 mmHg 37%
    13:00 +28°C° 0 mm 4 mps 724 mmHg 37%
    14:00 +28°C° 0 mm 4 mps 724 mmHg 37%
    15:00 +28°C° 0 mm 4 mps 723 mmHg 37%
    16:00 +27°C° 0 mm 4 mps 723 mmHg 40%
    17:00 +27°C° 0 mm 3 mps 723 mmHg 44%
    18:00 +26°C° 0 mm 3 mps 723 mmHg 48%
    19:00 +25°C° 0 mm 2 mps 724 mmHg 51%
    20:00 +25°C° 0 mm 1 mps 724 mmHg 54%
    21:00 +22°C° 0 mm 0 mps 724 mmHg 57%
    22:00 +21°C° 0 mm 0 mps 724 mmHg 59%
    23:00 +21°C° 0 mm 0 mps 724 mmHg 61%

    Tomorrow, 20 September, Wednesday

    Time Temperature Precipitation Wind Pressure Humidity
    00:00 +20°C° 0 mm 0 mps 724 mmHg 63%
    01:00 +20°C° 0 mm 0 mps 723 mmHg 63%
    02:00 +19°C° 0 mm 0 mps 723 mmHg 64%
    03:00 +19°C° 0 mm 0 mps 723 mmHg 65%
    04:00 +21°C° 0 mm 1 mps 723 mmHg 65%
    05:00 +20°C° 0 mm 1 mps 723 mmHg 64%
    06:00 +20°C° 0 mm 1 mps 723 mmHg 64%
    07:00 +22°C° 0 mm 1 mps 723 mmHg 53%
    08:00 +24°C° 0 mm 1 mps 723 mmHg 43%
    09:00 +26°C° 0 mm 1 mps 724 mmHg 33%
    10:00 +28°C° 0 mm 2 mps 723 mmHg 28%
    11:00 +29°C° 0 mm 2 mps 723 mmHg 23%
    12:00 +31°C° 0 mm 2 mps 723 mmHg 18%
    13:00 +31°C° 0 mm 2 mps 723 mmHg 17%
    14:00 +33°C° 0 mm 3 mps 722 mmHg 17%
    15:00 +33°C° 0 mm 3 mps 722 mmHg 16%
    16:00 +32°C° 0 mm 4 mps 722 mmHg 18%
    17:00 +30°C° 0 mm 4 mps 721 mmHg 21%
    18:00 +29°C° 0 mm 4 mps 721 mmHg 24%
    19:00 +28°C° 0 mm 3 mps 721 mmHg 27%
    20:00 +27°C° 0 mm 3 mps 722 mmHg 29%
    21:00 +26°C° 0 mm 2 mps 722 mmHg 32%
    22:00 +26°C° 0 mm 2 mps 721 mmHg 33%
    23:00 +25°C° 0 mm 1 mps 721 mmHg 34%

    Day after tomorrow, 21 September, Thursday

    Time Temperature Precipitation Wind Pressure Humidity
    00:00 +25°C° 0 mm 1 mps 721 mmHg 35%
    01:00 +24°C° 0 mm 1 mps 721 mmHg 35%
    02:00 +24°C° 0 mm 1 mps 720 mmHg 35%
    03:00 +23°C° 0 mm 1 mps 720 mmHg 35%
    04:00 +23°C° 0 mm 1 mps 720 mmHg 35%
    05:00 +23°C° 0 mm 1 mps 720 mmHg 36%
    06:00 +23°C° 0 mm 1 mps 720 mmHg 37%
    07:00 +25°C° 0 mm 2 mps 720 mmHg 33%
    08:00 +27°C° 0 mm 2 mps 721 mmHg 29%
    09:00 +29°C° 0 mm 2 mps 721 mmHg 25%
    10:00 +30°C° 0 mm 3 mps 721 mmHg 23%
    11:00 +33°C° 0 mm 3 mps 721 mmHg 21%
    12:00 +34°C° 0 mm 4 mps 721 mmHg 20%
    13:00 +34°C° 0 mm 4 mps 720 mmHg 21%
    14:00 +34°C° 0 mm 4 mps 720 mmHg 23%
    15:00 +34°C° 0 mm 4 mps 720 mmHg 24%
    16:00 +32°C° 0 mm 4 mps 720 mmHg 28%
    17:00 +30°C° 0 mm 3 mps 720 mmHg 31%
    18:00 +29°C° 0 mm 2 mps 720 mmHg 35%
    19:00 +28°C° 0 mm 2 mps 720 mmHg 37%
    20:00 +28°C° 0 mm 1 mps 720 mmHg 40%
    21:00 +27°C° 0 mm 1 mps 721 mmHg 42%
    22:00 +27°C° 0 mm 1 mps 721 mmHg 45%
    23:00 +26°C° 0 mm 1 mps 720 mmHg 47%

    22 September, Friday

    Time Temperature Precipitation Wind Pressure Humidity
    00:00 +25°C° 0 mm 1 mps 720 mmHg 50%
    01:00 +25°C° 0 mm 1 mps 720 mmHg 52%
    02:00 +24°C° 0 mm 1 mps 720 mmHg 55%
    03:00 +24°C° 0 mm 1 mps 720 mmHg 57%
    04:00 +23°C° 0 mm 1 mps 720 mmHg 58%
    05:00 +23°C° 0 mm 1 mps 720 mmHg 58%
    06:00 +23°C° 0 mm 1 mps 720 mmHg 59%
    07:00 +24°C° 0 mm 1 mps 720 mmHg 53%
    08:00 +26°C° 0 mm 1 mps 721 mmHg 48%
    09:00 +27°C° 0 mm 1 mps 721 mmHg 42%
    10:00 +29°C° 0 mm 1 mps 721 mmHg 38%
    11:00 +30°C° 0 mm 2 mps 721 mmHg 33%
    12:00 +31°C° 0 mm 2 mps 722 mmHg 29%
    13:00 +33°C° 0 mm 3 mps 721 mmHg 28%
    14:00 +33°C° 0 mm 3 mps 721 mmHg 28%
    15:00 +34°C° 0 mm 4 mps 720 mmHg 27%
    16:00 +33°C° 0 mm 4 mps 720 mmHg 30%
    17:00 +31°C° 0 mm 3 mps 720 mmHg 34%
    18:00 +30°C° 0 mm 3 mps 720 mmHg 37%
    19:00 +29°C° 0 mm 3 mps 720 mmHg 41%
    20:00 +28°C° 0 mm 2 mps 720 mmHg 45%
    21:00 +27°C° 0 mm 2 mps 720 mmHg 48%
    22:00 +26°C° 0 mm 2 mps 720 mmHg 51%
    23:00 +26°C° 0 mm 1 mps 720 mmHg 53%

    23 September, Saturday

    Time Temperature Precipitation Wind Pressure Humidity
    00:00 +25°C° 0 mm 1 mps 720 mmHg 55%
    01:00 +25°C° 0 mm 1 mps 720 mmHg 58%
    02:00 +24°C° 0 mm 1 mps 720 mmHg 61%
    03:00 +24°C° 0 mm 1 mps 720 mmHg 63%
    04:00 +23°C° 0 mm 1 mps 720 mmHg 65%
    05:00 +23°C° 0 mm 1 mps 720 mmHg 67%
    06:00 +23°C° 0 mm 1 mps 721 mmHg 68%
    07:00 +25°C° 0 mm 2 mps 721 mmHg 60%
    08:00 +26°C° 0 mm 3 mps 722 mmHg 51%
    09:00 +28°C° 0 mm 4 mps 722 mmHg 43%
    10:00 +29°C° 0 mm 4 mps 722 mmHg 41%
    11:00 +30°C° 0 mm 4 mps 722 mmHg 38%
    12:00 +32°C° 0 mm 5 mps 722 mmHg 36%
    13:00 +32°C° 0 mm 5 mps 721 mmHg 38%
    14:00 +32°C° 0 mm 5 mps 721 mmHg 40%
    15:00 +32°C° 0 mm 5 mps 720 mmHg 42%
    16:00 +30°C° 0 mm 4 mps 721 mmHg 47%
    17:00 +29°C° 0 mm 4 mps 721 mmHg 51%
    18:00 +28°C° 0 mm 3 mps 721 mmHg 56%
    19:00 +27°C° 0 mm 2 mps 721 mmHg 60%
    20:00 +26°C° 0 mm 2 mps 722 mmHg 63%
    21:00 +26°C° 0 mm 1 mps 722 mmHg 66%
    22:00 +25°C° 0 mm 1 mps 722 mmHg 69%
    23:00 +25°C° 0 mm 1 mps 722 mmHg 72%

    24 September, Sunday

    Time Temperature Precipitation Wind Pressure Humidity
    00:00 +24°C° 0 mm 1 mps 722 mmHg 74%
    01:00 +24°C° 0 mm 1 mps 721 mmHg 76%
    02:00 +23°C° 0 mm 1 mps 721 mmHg 78%
    03:00 +23°C° 0 mm 1 mps 721 mmHg 80%
    04:00 +23°C° 0 mm 1 mps 721 mmHg 82%
    05:00 +20°C° 0 mm 0 mps 721 mmHg 83%
    06:00 +20°C° 0 mm 0 mps 721 mmHg 85%
    07:00 +23°C° 0 mm 1 mps 722 mmHg 76%
    08:00 +25°C° 0 mm 1 mps 722 mmHg 67%
    09:00 +26°C° 0 mm 1 mps 722 mmHg 58%
    10:00 +28°C° 0 mm 2 mps 722 mmHg 53%
    11:00 +29°C° 0 mm 2 mps 722 mmHg 47%
    12:00 +30°C° 0 mm 3 mps 722 mmHg 41%
    13:00 +30°C° 0 mm 3 mps 722 mmHg 41%
    14:00 +32°C° 0 mm 4 mps 722 mmHg 40%
    15:00 +32°C° 0 mm 4 mps 722 mmHg 40%
    16:00 +30°C° 0 mm 4 mps 722 mmHg 44%
    17:00 +29°C° 0 mm 4 mps 722 mmHg 48%
    18:00 +28°C° 0 mm 3 mps 722 mmHg 52%
    19:00 +27°C° 0 mm 3 mps 722 mmHg 55%
    20:00 +26°C° 0 mm 2 mps 722 mmHg 59%
    21:00 +26°C° 0 mm 1 mps 723 mmHg 63%
    22:00 +25°C° 0 mm 1 mps 723 mmHg 65%
    23:00 +25°C° 0 mm 1 mps 722 mmHg 68%
    Show more